Location: Newark
(52.3500°N, 175.9667°E)
Time: 00:41:41
(UTC+00:00)

Explorer 7 - All Passes

Search period start: 19 April 2021 00:00
Search period end: 29 April 2021 00:00
Orbit: 484 x 677 km, 50.3° (Epoch: 18 April)

Date Brightness Start Highest point End Pass type
(mag) Time Alt. Az. Time Alt. Az. Time Alt. Az.
19 Apr - 07:41:35 10° SSE 07:42:38 11° SE 07:43:42 10° ESE daylight
19 Apr - 09:18:21 10° SW 09:22:09 36° SSE 09:26:12 10° E visible
19 Apr - 10:58:06 10° WSW 11:02:20 67° S 11:06:53 10° E visible
19 Apr - 12:38:23 10° W 12:42:44 56° SSW 12:47:19 10° ESE night (unlit)
19 Apr - 14:19:03 10° W 14:22:47 25° SSW 14:26:39 10° SSE night (unlit)
20 Apr - 07:44:17 10° S 07:46:46 16° SE 07:49:20 10° ESE daylight
20 Apr - 09:22:32 10° SW 09:26:29 45° SSE 09:30:42 10° E visible
20 Apr - 11:02:31 10° W 11:06:46 69° S 11:11:19 10° E visible
20 Apr - 12:42:51 10° W 12:47:06 47° SSW 12:51:36 10° SE visible
20 Apr - 14:23:52 10° W 14:27:01 18° SW 14:30:15 10° S night (unlit)
21 Apr - 07:47:49 10° SSW 07:50:56 22° SE 07:54:13 10° E daylight
21 Apr - 09:26:49 10° WSW 09:30:51 55° SSE 09:35:09 10° E visible
21 Apr - 11:06:57 10° W 11:11:12 67° S 11:15:43 10° ESE visible
21 Apr - 12:47:20 10° W 12:51:27 38° SSW 12:55:46 10° SE visible
21 Apr - 14:29:04 10° WSW 14:31:11 13° SW 14:33:20 10° SSW night (unlit)
22 Apr - 07:51:41 10° SSW 07:55:10 29° SSE 07:58:52 10° E daylight
22 Apr - 09:31:09 10° WSW 09:35:14 62° S 09:39:37 10° E visible
22 Apr - 11:11:23 10° W 11:15:36 61° S 11:20:07 10° ESE visible
22 Apr - 12:51:53 10° W 12:55:45 30° SSW 12:59:48 10° SSE visible
23 Apr - 06:18:35 10° SSE 06:19:54 11° SE 06:21:14 10° ESE daylight
23 Apr - 07:55:45 10° SW 07:59:27 37° SSE 08:03:24 10° E visible
23 Apr - 09:35:33 10° WSW 09:39:38 67° S 09:44:03 10° E visible
23 Apr - 11:15:49 10° W 11:20:00 53° SSW 11:24:26 10° ESE visible
23 Apr - 12:56:33 10° W 13:00:00 22° SW 13:03:36 10° SSE visible
24 Apr - 06:21:31 10° S 06:24:02 16° SE 06:26:38 10° E daylight
24 Apr - 07:59:57 10° SW 08:03:47 47° SSE 08:07:53 10° E visible
24 Apr - 09:39:58 10° W 09:44:04 68° S 09:48:28 10° E visible
24 Apr - 11:20:17 10° W 11:24:21 44° SSW 11:28:41 10° SE visible
24 Apr - 13:01:26 10° WSW 13:04:13 16° SW 13:07:04 10° S visible
25 Apr - 06:25:07 10° SSW 06:28:13 23° SE 06:31:28 10° E daylight
25 Apr - 08:04:14 10° WSW 08:08:09 56° SSE 08:12:21 10° E visible
25 Apr - 09:44:22 10° W 09:48:28 65° S 09:52:52 10° ESE visible
25 Apr - 11:24:46 10° W 11:28:41 35° SSW 11:32:49 10° SE visible
25 Apr - 13:07:00 10° WSW 13:08:22 11° SW 13:09:45 10° SSW night (unlit)
26 Apr - 06:29:02 10° SSW 06:32:28 30° SSE 06:36:05 10° E daylight
26 Apr - 08:08:35 10° WSW 08:12:33 63° S 08:16:46 10° E visible
26 Apr - 09:48:48 10° W 09:52:53 58° SSW 09:57:14 10° ESE visible
26 Apr - 11:29:20 10° W 11:32:58 27° SSW 11:36:46 10° SSE visible
27 Apr - 04:55:37 10° SSE 04:57:09 12° SE 04:58:43 10° ESE daylight
27 Apr - 06:33:07 10° SW 06:36:45 39° SSE 06:40:36 10° E daylight
27 Apr - 08:12:58 10° W 08:16:57 67° S 08:21:12 10° E visible
27 Apr - 09:53:14 10° W 09:57:15 50° SSW 10:01:32 10° ESE visible
27 Apr - 11:34:03 10° W 11:37:12 20° SW 11:40:29 10° S visible
28 Apr - 04:58:44 10° S 05:01:18 17° SE 05:03:57 10° E daylight
28 Apr - 06:37:19 10° WSW 06:41:05 48° SSE 06:45:04 10° E daylight
28 Apr - 08:17:22 10° W 08:21:21 67° S 08:25:36 10° E visible
28 Apr - 09:57:42 10° W 10:01:36 40° SSW 10:05:44 10° SE visible
28 Apr - 11:39:04 10° WSW 11:41:24 14° SW 11:43:47 10° S visible
